Location: Boston
(42.3580°N, 71.0600°W)
Time: 07:27:38
(UTC-04:00)

Tiangong 1 - Pass Details

Date: 14 October 2017
Orbit: 292 x 319 km, 42.8° (Epoch: 24 October)

Event Time Altitude Azimuth Distance (km) Brightness Sun altitude
Rises 20:05:33 0° 275° (W) 2,036 6.2 -23.3°
Reaches altitude 10° 20:07:54 10° 255° (WSW) 1,198 4.4 -23.7°
Enters shadow 20:08:40 14° 241° (WSW) 1,001 3.8 -23.9°
